User: anonymous   Login
Location: Unspecified
(0.0000°N, 0.0000°E)
Time: 20:04:27
(UTC+02:00)
Language:

Cosmos 1295 Rocket - Orbit

View from above orbital plane
View from above orbital plane
View from above satellite
View from above satellite

Ground track
Ground track

The orbit data is extracted from the following two-line orbital elements,

1 12682U 81077B   16125.89602343  .00000132  00000-0  11489-3 0  9994
2 12682  82.9150 321.5057 0035083  50.7910  62.4052 13.78520380746610
Epoch (UTC): 04 May 2016 21:30:16
Eccentricity: 0.0035083
inclination: 82.9150°
perigee height: 943 km
apogee height: 995 km
right ascension of ascending node: 321.5057°
argument of perigee: 50.7910°
revolutions per day: 13.78520380
mean anomaly at epoch: 62.4052°
orbit number at epoch: 74661

The dashed part of the orbit path shows where the satellite is in the earth's shadow,  

DLR